This is the latest recevied weather packets stored in our database for station/object N0NPO. If no packets are shown the sender has not sent any weather packets the latest 10 day(s).
| Time | Temp. | Humidity | Pressure | Rain* | Wind** | Luminosity | Snow |
|---|---|---|---|---|---|---|---|
| 1778197771 | 17.22° C | 1% | 1012.9 hPa | 0 mm | - | 204 W/m² | - |
| 1778197467 | 17.78° C | 1% | 1012.9 hPa | 0 mm | - | 201 W/m² | - |
| 1778197164 | 18.33° C | 1% | 1012.9 hPa | 0 mm | - | 191 W/m² | - |
| 1778196861 | 17.78° C | 1% | 1012.7 hPa | 0 mm | - | 193 W/m² | - |
| 1778196559 | 18.89° C | 1% | 1012.9 hPa | 0 mm | - | 265 W/m² | - |
| 1778196255 | 18.33° C | 1% | 1013.1 hPa | 0 mm | - | 270 W/m² | - |
| 1778195953 | 17.78° C | 1% | 1013.1 hPa | 0 mm | - | 220 W/m² | - |
| 1778195649 | 18.89° C | 1% | 1012.9 hPa | 0 mm | - | 328 W/m² | - |
| 1778195345 | 17.78° C | 1% | 1012.7 hPa | 0 mm | - | 349 W/m² | - |
| 1778195043 | 17.22° C | 1% | 1012.7 hPa | 0 mm | - | 328 W/m² | - |
| 1778194743 | 17.78° C | 1% | 1012.6 hPa | 0 mm | - | 401 W/m² | - |
| 1778194439 | 18.33° C | 1% | 1012.9 hPa | 0 mm | - | 356 W/m² | - |
| 1778194135 | 17.78° C | 1% | 1012.7 hPa | 0 mm | - | 328 W/m² | - |
| 1778193832 | 17.22° C | 1% | 1012.9 hPa | 0 mm | - | 347 W/m² | - |
| 1778193528 | 17.78° C | 1% | 1012.9 hPa | 0 mm | - | 341 W/m² | - |
| 1778193225 | 17.78° C | 1% | 1012.7 hPa | 0 mm | - | 376 W/m² | - |
| 1778192922 | 17.78° C | 1% | 1013.1 hPa | 0 mm | - | 424 W/m² | - |
| 1778192618 | 17.78° C | 1% | 1013.1 hPa | 0 mm | - | 291 W/m² | - |
| 1778192315 | 17.78° C | 1% | 1013 hPa | 0 mm | - | 469 W/m² | - |
| 1778192012 | 18.33° C | 1% | 1012.9 hPa | 0 mm | - | 492 W/m² | - |
| 1778191707 | 17.22° C | 1% | 1013 hPa | 0 mm | - | 515 W/m² | - |
| 1778191406 | 17.22° C | 1% | 1013 hPa | 0 mm | - | 488 W/m² | - |
| 1778191102 | 17.22° C | 1% | 1013.2 hPa | 0 mm | - | 486 W/m² | - |
| 1778190799 | 17.78° C | 1% | 1013.2 hPa | 0 mm | - | 517 W/m² | - |
| 1778190497 | 17.78° C | 1% | 1013.5 hPa | 0 mm | - | 533 W/m² | - |
* Rain latest hour (hover to see other rain measurements)
** Current wind speed in m/s (hover to see current wind gust speed)